AR258 EDLV-EDLV

Flight info

Callsign AR258
Flight time 0h 10m
Altitude
Route EDLV/09
Aircraft C172

Departure

Time 2026-05-01 08:51
Airport Weeze (Niederrhein) Airport (EDLV)

Arrival

Time 2026-05-01 09:01
Airport Weeze (Niederrhein) Airport (EDLV)
Time Latitude Longitude Altitude Speed Heading
2026-05-01 08:44 51.59957 6.14882 101 ft 0 kts 93°
2026-05-01 08:47 51.59974 6.14886 101 ft 12 kts 289°
2026-05-01 08:47 51.60005 6.14799 101 ft 13 kts
2026-05-01 08:47 51.60047 6.14712 100 ft 11 kts 274°
2026-05-01 08:47 51.60049 6.14564 100 ft 17 kts 271°
2026-05-01 08:48 51.60053 6.14326 99 ft 26 kts 271°
2026-05-01 08:48 51.60060 6.13997 99 ft 33 kts 272°
2026-05-01 08:48 51.60069 6.13612 98 ft 35 kts 272°
2026-05-01 08:48 51.60077 6.13234 96 ft 33 kts 272°
2026-05-01 08:49 51.60084 6.12886 95 ft 30 kts 272°
2026-05-01 08:49 51.60090 6.12566 94 ft 27 kts 272°
2026-05-01 08:49 51.60133 6.12457 94 ft 6 kts 358°
2026-05-01 08:49 51.60174 6.12458 94 ft 6 kts
2026-05-01 08:50 51.60196 6.12460 94 ft 0 kts
2026-05-01 08:50 51.60286 6.12484 95 ft 21 kts 43°
2026-05-01 08:50 51.60281 6.12726 93 ft 39 kts 92°
2026-05-01 08:51 51.60258 6.13342 190 ft 61 kts 94°
2026-05-01 08:51 51.60274 6.14003 471 ft 63 kts 91°
2026-05-01 08:51 51.60300 6.14471 644 ft 66 kts 94°
2026-05-01 08:51 51.60319 6.15262 808 ft 72 kts 98°
2026-05-01 08:52 51.60344 6.16067 1119 ft 70 kts 99°
2026-05-01 08:52 51.60348 6.16826 1408 ft 67 kts 97°
2026-05-01 08:52 51.60584 6.17520 1662 ft 74 kts 64°
2026-05-01 08:52 51.61066 6.18022 1810 ft 93 kts 32°
2026-05-01 08:53 51.61803 6.18012 1909 ft 119 kts 349°
2026-05-01 08:53 51.62333 6.17147 2061 ft 106 kts 254°
2026-05-01 08:53 51.62232 6.15949 2131 ft 115 kts 248°
2026-05-01 08:53 51.62115 6.14663 2050 ft 114 kts 252°
2026-05-01 08:54 51.62173 6.13415 1845 ft 111 kts 264°
2026-05-01 08:54 51.62278 6.12177 1540 ft 111 kts 269°
2026-05-01 08:54 51.62240 6.11091 1370 ft 85 kts 232°
2026-05-01 08:54 51.61933 6.10478 1307 ft 59 kts 194°
2026-05-01 08:55 51.61512 6.10337 1126 ft 69 kts 175°
2026-05-01 08:55 51.61053 6.10492 793 ft 68 kts 146°
2026-05-01 08:55 51.60710 6.10982 540 ft 65 kts 127°
2026-05-01 08:55 51.60485 6.11566 327 ft 62 kts 123°
2026-05-01 08:56 51.60311 6.12166 196 ft 59 kts 102°
2026-05-01 08:56 51.60278 6.12839 107 ft 58 kts 90°
2026-05-01 08:56 51.60265 6.13510 153 ft 65 kts 93°
2026-05-01 08:56 51.60276 6.14211 425 ft 65 kts 95°
2026-05-01 08:57 51.60274 6.15016 617 ft 78 kts 96°
2026-05-01 08:57 51.60309 6.15873 901 ft 80 kts 93°
2026-05-01 08:57 51.60415 6.16779 1182 ft 85 kts 78°
2026-05-01 08:57 51.60835 6.17499 1415 ft 99 kts 30°
2026-05-01 08:58 51.61547 6.17234 1561 ft 118 kts 319°
2026-05-01 08:58 51.61874 6.16104 1714 ft 115 kts 271°
2026-05-01 08:58 51.62002 6.14839 1804 ft 110 kts 263°
2026-05-01 08:58 51.62097 6.13641 1625 ft 104 kts 265°
2026-05-01 08:59 51.62155 6.12529 1458 ft 93 kts 258°
2026-05-01 08:59 51.62146 6.11536 1418 ft 91 kts 252°
2026-05-01 08:59 51.62118 6.10549 1292 ft 85 kts 256°
2026-05-01 08:59 51.62083 6.09635 1249 ft 75 kts 234°
2026-05-01 09:00 51.61681 6.09187 1102 ft 76 kts 172°
2026-05-01 09:00 51.61251 6.09380 867 ft 60 kts 148°
2026-05-01 09:00 51.60925 6.09761 706 ft 57 kts 130°
2026-05-01 09:00 51.60691 6.10267 516 ft 63 kts 121°
2026-05-01 09:01 51.60519 6.10843 390 ft 55 kts 115°
2026-05-01 09:01 51.60373 6.11492 355 ft 61 kts 104°
2026-05-01 09:01 51.60305 6.12143 171 ft 55 kts 99°
2026-05-01 09:01 51.60280 6.12698 93 ft 40 kts 92°
2026-05-01 09:02 51.60271 6.12939 94 ft 9 kts 111°
2026-05-01 09:02 51.60266 6.12951 94 ft 3 kts 148°
2026-05-01 09:02 51.60260 6.12954 96 ft 0 kts 168°
2026-05-01 09:02 51.60207 6.12955 94 ft 14 kts 181°
2026-05-01 09:03 51.60105 6.12956 95 ft 16 kts 162°
2026-05-01 09:03 51.60079 6.13072 96 ft 10 kts 92°
2026-05-01 09:03 51.60077 6.13190 96 ft 14 kts 91°
2026-05-01 09:03 51.60073 6.13383 97 ft 19 kts 91°
2026-05-01 09:04 51.60069 6.13553 97 ft 12 kts 92°
2026-05-01 09:04 51.60066 6.13694 98 ft 11 kts 91°
2026-05-01 09:04 51.60064 6.13799 98 ft 9 kts 92°
2026-05-01 09:04 51.60061 6.13908 98 ft 10 kts 93°
2026-05-01 09:05 51.60058 6.14028 99 ft 11 kts 91°
2026-05-01 09:05 51.60056 6.14154 99 ft 12 kts 92°
2026-05-01 09:05 51.60053 6.14286 99 ft 12 kts 91°
2026-05-01 09:06 51.60047 6.14647 100 ft 5 kts 91°
2026-05-01 09:06 51.60046 6.14734 100 ft 11 kts 92°
2026-05-01 09:06 51.60003 6.14799 101 ft 8 kts 163°
2026-05-01 09:07 51.59957 6.14863 101 ft 6 kts 102°
2026-05-01 09:07 51.59957 6.14866 101 ft 0 kts 99°